CW7241 Weather Reports


time (UTC)temp
F
wind
direction
speed
knots
gust
knots
rain 1hr
in
rain 24hr
in
rain mn
in
humidity
%
barometer
mb
20260506204606 56 291 1.7 13.9 0.00 0.61 0.00 50 1011.3
20260506204106 56 267 1.7 10.4 0.00 0.61 0.00 50 1011.2
20260506203609 56 336 0.9 9.6 0.00 0.61 0.00 49 1011.2
20260506203106 56 315 0.0 9.6 0.00 0.61 0.00 50 1011.1
20260506202607 57 274 5.2 9.6 0.00 0.61 0.00 48 1010.9
20260506202109 57 246 2.6 8.7 0.00 0.61 0.00 50 1010.9
20260506201606 57 325 1.7 8.7 0.00 0.61 0.00 49 1010.9
20260506201106 57 254 0.0 9.6 0.00 0.61 0.00 48 1011.0
20260506200606 58 329 4.3 9.6 0.00 0.61 0.00 48 1010.9
20260506200108 57 245 0.0 8.7 0.00 0.61 0.00 51 1010.8
20260506195605 57 314 7.8 9.6 0.00 0.61 0.00 50 1010.8
20260506195106 57 15 5.2 10.4 0.00 0.61 0.00 50 1010.8
20260506194606 57 347 4.3 10.4 0.00 0.61 0.00 50 1010.8
20260506194105 58 340 3.5 8.7 0.00 0.61 0.00 47 1010.7
20260506193606 58 281 2.6 8.7 0.00 0.61 0.00 49 1010.7
20260506193106 58 323 3.5 9.6 0.00 0.61 0.00 47 1010.5
20260506192609 57 276 0.9 9.6 0.00 0.61 0.00 48 1010.5
20260506192106 57 302 0.9 13.9 0.00 0.61 0.00 47 1010.6
20260506191605 58 16 8.7 7.8 0.00 0.61 0.00 46 1010.7
20260506191105 58 290 1.7 7.0 0.00 0.61 0.00 48 1010.8
20260506190606 58 33 3.5 10.4 0.00 0.61 0.00 47 1010.7
20260506190105 58 248 7.8 10.4 0.00 0.61 0.00 47 1010.4
20260506185607 57 337 0.0 11.3 0.00 0.61 0.00 48 1010.5
20260506185106 58 214 7.0 8.7 0.00 0.61 0.00 47 1010.7
20260506184609 57 277 0.0 12.2 0.00 0.61 0.00 47 1010.7
20260506184108 57 273 0.9 12.2 0.00 0.61 0.00 48 1010.7
20260506183606 56 290 3.5 8.7 0.00 0.61 0.00 48 1010.8
20260506183110 56 335 3.5 8.7 0.00 0.61 0.00 47 1010.9
20260506182606 57 285 3.5 9.6 0.00 0.61 0.00 49 1010.7
20260506182105 56 253 9.6 11.3 0.00 0.61 0.00 52 1010.8
20260506181606 56 327 3.5 9.6 0.00 0.61 0.00 51 1010.8
20260506181106 56 294 3.5 9.6 0.00 0.61 0.00 52 1010.8
20260506180608 56 11 4.3 9.6 0.00 0.61 0.00 52 1010.8
20260506180106 55 257 4.3 11.3 0.00 0.61 0.00 51 1010.8
20260506175606 56 322 1.7 8.7 0.00 0.61 0.00 50 1010.8
20260506175106 56 17 1.7 8.7 0.00 0.61 0.00 49 1010.9
20260506174606 56 306 3.5 9.6 0.00 0.61 0.00 48 1010.9
20260506174106 57 248 6.1 7.8 0.00 0.61 0.00 50 1010.8
20260506173610 56 275 2.6 9.6 0.00 0.61 0.00 49 1010.7
20260506173106 56 348 4.3 7.0 0.00 0.61 0.00 51 1010.7
20260506172606 56 313 0.9 10.4 0.00 0.61 0.00 52 1010.9
20260506172108 55 243 0.9 11.3 0.00 0.61 0.00 51 1010.9
20260506171609 55 355 5.2 11.3 0.00 0.61 0.00 54 1010.8
20260506171109 55 304 3.5 10.4 0.00 0.61 0.00 51 1010.7
20260506170605 55 30 7.8 7.8 0.00 0.61 0.00 56 1010.5
20260506170105 54 28 4.3 10.4 0.00 0.61 0.00 53 1010.3
20260506165606 54 22 0.0 10.4 0.00 0.61 0.00 56 1010.6
20260506165106 55 30 6.1 10.4 0.00 0.61 0.00 57 1010.7
20260506164605 55 17 5.2 9.6 0.00 0.61 0.00 57 1010.9
20260506164106 55 236 7.0 7.0 0.00 0.61 0.00 57 1010.7
20260506163606 55 261 5.2 6.1 0.00 0.61 0.00 58 1010.7
20260506163106 55 290 2.6 6.1 0.00 0.61 0.00 60 1010.5
20260506162605 54 239 0.0 7.8 0.00 0.61 0.00 61 1010.5
20260506162110 54 319 0.0 7.8 0.00 0.61 0.00 61 1010.6
20260506161606 54 292 0.9 7.8 0.00 0.61 0.00 62 1010.5
20260506161106 53 290 3.5 7.8 0.00 0.61 0.00 62 1010.6
20260506160605 53 20 3.5 8.7 0.00 0.61 0.00 61 1010.5
20260506160106 53 284 0.0 7.8 0.00 0.61 0.00 64 1010.4
20260506155606 52 5 4.3 10.4 0.00 0.61 0.00 64 1010.4
20260506155113 53 215 1.7 8.7 0.00 0.61 0.00 65 1010.3
20260506154606 52 317 2.6 6.1 0.00 0.61 0.00 67 1010.3
20260506154106 52 294 3.5 7.8 0.00 0.61 0.00 68 1010.2
20260506153607 52 355 8.7 9.6 0.00 0.61 0.00 69 1010.1
20260506153105 52 305 0.9 8.7 0.00 0.61 0.00 69 1010.2
20260506152606 51 300 6.1 6.1 0.01 0.61 0.00 70 1010.2
20260506152106 51 262 2.6 8.7 0.01 0.61 0.00 70 1010.2
20260506151606 51 254 2.6 10.4 0.01 0.61 0.00 70 1010.1
20260506151106 50 309 5.2 6.1 0.01 0.61 0.00 73 1010.0
20260506150605 50 306 3.5 7.8 0.01 0.61 0.00 72 1009.9
20260506150106 50 263 1.7 7.0 0.01 0.61 0.00 75 1010.0
20260506145606 50 315 0.0 7.8 0.01 0.61 0.00 76 1010.2
20260506145106 50 250 0.0 7.8 0.01 0.61 0.00 78 1010.0
20260506144610 50 305 2.6 6.1 0.01 0.61 0.00 81 1009.9
20260506144106 49 286 0.0 6.1 0.01 0.61 0.00 81 1009.8
20260506143606 50 299 0.9 8.7 0.01 0.61 0.00 83 1009.6
20260506143106 49 40 0.0 5.2 0.01 0.61 0.00 84 1009.6
20260506142609 49 265 2.6 4.3 0.00 0.60 0.00 83 1009.5
20260506142106 48 11 0.0 6.1 0.00 0.60 0.00 84 1009.5
20260506141605 48 346 4.3 7.0 0.00 0.60 0.00 84 1009.5
20260506141106 48 320 2.6 5.2 0.00 0.60 0.00 86 1009.5
20260506140605 47 325 2.6 8.7 0.00 0.60 0.00 86 1009.6
20260506140106 47 284 2.6 6.1 0.00 0.60 0.00 88 1009.4
20260506135609 47 323 3.5 9.6 0.00 0.60 0.00 90 1009.2
20260506135106 47 315 3.5 10.4 0.00 0.60 0.00 91 1009.1
20260506134609 47 294 1.7 9.6 0.00 0.60 0.00 92 1009.3
20260506134108 47 263 1.7 10.4 0.00 0.60 0.00 93 1009.0
20260506133606 48 290 4.3 6.1 0.00 0.60 0.00 95 1008.9
20260506133109 47 5 0.9 6.1 0.00 0.60 0.00 96 1008.9
20260506132605 47 351 0.0 4.3 0.00 0.60 0.00 96 1008.9
20260506132106 47 259 0.0 3.5 0.00 0.60 0.00 97 1009.1
20260506131606 47 279 1.7 5.2 0.00 0.60 0.00 99 1009.0
20260506131105 47 325 0.0 0.9 0.00 0.60 0.00 99 1008.9
20260506130606 46 326 0.0 5.2 0.00 0.60 0.00 99 1008.9
20260506130110 46 306 3.5 4.3 0.00 0.60 0.00 99 1009.1
20260506125606 46 355 0.9 7.0 0.00 0.60 0.00 100 1009.3
20260506125109 46 294 0.0 5.2 0.00 0.60 0.00 100 1009.0
20260506124606 46 331 0.9 2.6 0.00 0.60 0.00 100 1008.4
20260506124106 46 335 0.0 4.3 0.00 0.60 0.00 100 1008.1
20260506123606 46 341 1.7 6.1 0.00 0.60 0.00 100 1008.0
20260506123109 46 329 0.9 5.2 0.00 0.60 0.00 100 1008.3
20260506122606 46 341 0.0 3.5 0.00 0.60 0.00 100 1008.3
20260506122106 46 333 0.0 3.5 0.00 0.60 0.00 100 1008.3
20260506121605 45 331 0.0 5.2 0.00 0.60 0.00 100 1008.2
20260506121105 45 298 1.7 5.2 0.00 0.60 0.00 100 1008.4
20260506120606 45 355 0.0 5.2 0.00 0.60 0.00 100 1008.0
20260506120106 45 355 3.5 9.6 0.00 0.60 0.00 100 1008.0
20260506115606 45 340 1.7 4.3 0.00 0.60 0.00 100 1008.3
20260506115106 45 304 0.0 4.3 0.00 0.60 0.00 100 1008.5
20260506114605 45 26 0.0 3.5 0.01 0.60 0.00 100 1008.1
20260506114106 45 28 0.0 4.3 0.01 0.60 0.00 100 1007.9
20260506113606 45 339 0.0 6.1 0.01 0.60 0.00 100 1007.9
20260506113106 45 5 2.6 7.8 0.01 0.60 0.00 100 1007.7
20260506112606 45 5 0.9 11.3 0.01 0.60 0.00 100 1007.6
20260506112108 45 302 1.7 6.1 0.01 0.60 0.00 100 1007.2
20260506111606 45 28 0.9 10.4 0.01 0.60 0.00 100 1007.2
20260506111106 45 355 5.2 10.4 0.01 0.60 0.00 100 1006.8
20260506110605 45 14 7.8 9.6 0.01 0.60 0.00 100 1007.1
20260506110106 45 45 3.5 6.1 0.01 0.60 0.00 100 1007.4
20260506105609 45 51 0.0 5.2 0.01 0.60 0.00 100 1007.6
20260506105106 45 355 3.5 6.1 0.01 0.60 0.00 100 1007.7
20260506104606 45 332 0.0 8.7 0.00 0.59 0.00 100 1007.6
20260506104109 45 13 0.0 8.7 0.00 0.59 0.00 100 1007.3
20260506103606 45 342 2.6 3.5 0.00 0.59 0.00 100 1007.1
20260506103106 45 348 0.0 7.8 0.00 0.59 0.00 100 1006.9
20260506102609 45 350 4.3 5.2 0.00 0.59 0.00 100 1006.8
20260506102106 45 28 6.1 7.8 0.00 0.59 0.00 100 1006.7
20260506101606 45 333 1.7 11.3 0.00 0.59 0.00 100 1006.3
20260506101109 45 348 4.3 9.6 0.00 0.59 0.00 100 1006.1
20260506100606 45 9 2.6 6.1 0.01 0.59 0.00 100 1005.8
20260506100110 45 340 0.9 5.2 0.02 0.59 0.00 100 1005.6
20260506095605 45 9 0.0 10.4 0.02 0.59 0.00 100 1005.8
20260506095109 45 355 7.8 10.4 0.02 0.59 0.00 100 1005.8
20260506094606 45 28 7.8 13.9 0.02 0.59 0.00 100 1006.1
20260506094106 45 13 7.8 12.2 0.03 0.59 0.00 100 1006.0
20260506093606 45 26 7.8 14.8 0.04 0.59 0.00 100 1005.9
20260506093108 45 350 8.7 12.2 0.04 0.59 0.00 100 1006.2
20260506092606 46 0 6.1 16.5 0.04 0.59 0.00 100 1006.2
20260506092106 46 5 7.8 12.2 0.05 0.59 0.00 100 1005.9
20260506091606 46 330 9.6 14.8 0.06 0.59 0.00 100 1005.6
20260506091109 46 9 13.0 17.4 0.06 0.59 0.00 100 1005.7
20260506090606 47 22 10.4 13.0 0.05 0.58 0.00 100 1005.7
20260506090109 47 27 4.3 9.6 0.05 0.57 0.00 100 1006.1
20260506085609 47 339 3.5 9.6 0.05 0.57 0.00 100 1006.3
20260506085107 47 323 0.9 10.4 0.05 0.57 0.00 100 1006.0
20260506084605 48 355 3.5 11.3 0.05 0.57 0.00 100 1005.9
20260506084109 48 22 4.3 13.9 0.04 0.56 0.00 100 1005.7
20260506083609 48 5 3.5 11.3 0.04 0.55 0.00 100 1005.7
20260506083106 48 348 5.2 8.7 0.04 0.55 0.00 100 1005.7
20260506082605 48 351 6.1 11.3 0.03 0.54 0.00 100 1005.7
20260506082105 49 0 3.5 7.8 0.03 0.53 0.00 100 1005.7
20260506081605 49 337 2.6 7.8 0.02 0.52 0.00 100 1005.7
20260506081106 49 5 4.3 8.7 0.03 0.52 0.00 100 1005.8
20260506080608 49 31 5.2 10.4 0.04 0.52 0.00 100 1005.7
20260506080106 49 0 5.2 10.4 0.04 0.51 0.00 100 1005.4
20260506073105 49 315 2.6 10.4 0.07 0.51 0.00 100 1005.2
20260506072606 50 5 5.2 10.4 0.07 0.51 0.00 100 1005.2
20260506072108 50 333 5.2 12.2 0.06 0.50 0.00 100 1005.1
20260506071608 50 13 5.2 11.3 0.07 0.50 0.00 100 1005.1
20260506071109 50 355 9.6 10.4 0.07 0.49 0.00 100 1005.2
20260506070606 51 11 6.1 8.7 0.06 0.48 0.00 100 1005.3
20260506070106 51 309 2.6 7.8 0.05 0.47 0.00 100 1005.3
20260506062106 52 355 0.0 3.5 0.09 0.43 0.00 100 1005.2
20260506061609 52 355 0.0 2.6 0.08 0.42 0.00 100 1005.4
20260506061113 52 355 1.7 2.6 0.07 0.42 0.00 100 1005.4
20260506060609 52 355 2.6 2.6 0.07 0.42 0.00 100 1005.4
20260506060109 52 355 0.0 3.5 0.07 0.42 0.00 100 1005.3
20260506051106 54 349 4.3 4.3 0.01 0.35 0.00 100 1005.9
20260506050606 56 222 2.6 2.6 0.01 0.35 0.00 100 1005.9
20260506050106 57 208 0.0 0.9 0.01 0.35 0.00 100 1005.9
20260506045105 57 208 0.0 2.6 0.02 0.35 0.00 100 1005.8
20260506044608 57 208 2.6 5.2 0.03 0.35 0.00 100 1005.9
20260506044106 57 222 0.0 2.6 0.04 0.35 0.00 100 1005.9
20260506043609 57 223 0.0 3.5 0.04 0.35 0.00 100 1006.0
20260506043106 57 223 0.0 3.5 0.06 0.35 0.00 100 1006.1
20260506042606 57 228 0.0 4.3 0.07 0.35 0.00 100 1006.0
20260506042106 58 234 0.9 4.3 0.09 0.35 0.00 100 1005.9
20260506041606 58 200 0.0 6.1 0.09 0.34 0.00 100 1006.0
20260506041109 58 221 0.0 4.3 0.09 0.34 0.00 100 1006.1
20260506040605 58 190 0.0 6.1 0.10 0.34 0.00 100 1006.1
20260506040105 58 259 6.1 9.6 0.11 0.34 0.00 100 1006.3
20260506035606 58 250 0.0 3.5 0.10 0.33 0.00 100 1006.5
20260506035106 58 222 3.5 5.2 0.11 0.33 0.00 100 1006.6
20260506034606 58 229 1.7 5.2 0.10 0.32 0.00 100 1006.7
20260506034106 58 230 2.6 3.5 0.09 0.30 0.00 100 1006.8
20260506033606 58 231 0.0 6.1 0.10 0.30 0.00 100 1006.9
20260506033105 58 221 0.0 4.3 0.09 0.28 0.00 100 1006.9
20260506032606 58 226 2.6 11.3 0.10 0.27 0.00 100 1007.0
20260506032106 58 240 2.6 5.2 0.09 0.26 0.00 100 1007.0
20260506031606 58 242 1.7 7.0 0.08 0.24 0.00 100 1007.0
20260506031106 58 250 0.0 5.2 0.09 0.24 0.00 100 1007.0
20260506030605 58 234 0.0 6.1 0.10 0.23 0.00 100 1007.0
20260506030108 58 240 1.7 4.3 0.09 0.22 0.00 100 1007.1
20260506025609 58 246 0.0 3.5 0.10 0.22 0.00 100 1007.0
20260506025105 58 246 0.0 6.1 0.10 0.21 0.00 100 1007.1
20260506024605 58 231 2.6 5.2 0.11 0.21 0.00 100 1007.2
20260506024105 58 230 2.6 8.7 0.11 0.20 0.00 100 1007.2
20260506023606 58 232 3.5 4.3 0.10 0.19 0.00 100 1007.3
20260506023105 58 230 3.5 3.5 0.09 0.18 0.00 100 1007.3
20260506022606 58 231 0.0 5.2 0.08 0.16 0.00 100 1007.5
20260506022105 58 239 0.0 5.2 0.08 0.16 0.00 100 1007.5
20260506021606 58 207 1.7 5.2 0.07 0.14 0.00 100 1007.4
20260506021105 59 207 3.5 5.2 0.06 0.13 0.00 100 1007.2
20260506020610 59 204 0.9 7.8 0.04 0.11 0.00 100 1007.4
20260506020106 59 229 0.0 6.1 0.05 0.11 0.00 100 1007.4
20260506015605 59 229 6.1 6.1 0.04 0.10 0.00 100 1007.5
20260506015106 59 242 1.7 6.1 0.04 0.09 0.00 100 1007.4
20260506014606 59 223 0.9 5.2 0.03 0.08 0.00 100 1007.3
20260506014106 59 223 2.6 4.3 0.03 0.07 0.00 100 1007.2
20260506013605 59 223 0.0 3.5 0.03 0.07 0.00 100 1007.1
20260506013106 59 223 2.6 3.5 0.03 0.07 0.00 100 1007.0
20260506012605 59 222 0.0 3.5 0.02 0.06 0.00 100 1006.9
20260506012108 59 170 0.0 7.0 0.02 0.06 0.00 100 1007.0
20260506011606 59 211 0.0 4.3 0.02 0.06 0.00 100 1007.0
20260506011106 59 234 1.7 5.2 0.02 0.06 0.00 100 1006.9
20260506010605 59 235 0.0 2.6 0.02 0.06 0.00 100 1007.1
20260506010106 59 234 0.0 4.3 0.01 0.05 0.00 100 1007.3
20260506005605 59 239 1.7 6.1 0.01 0.05 0.00 100 1007.3
20260506005109 59 244 0.0 11.3 0.01 0.05 0.00 100 1007.3
20260506004605 59 242 0.0 8.7 0.01 0.05 0.00 100 1007.4
20260506004106 59 242 0.0 7.0 0.00 0.04 0.00 100 1007.5
20260506003605 59 234 0.0 6.1 0.00 0.04 0.00 100 1007.4
20260506003109 59 239 0.0 6.1 0.00 0.04 0.00 100 1007.3
20260506002606 59 253 0.9 6.1 0.00 0.04 0.00 100 1007.3
20260506002105 59 263 0.0 4.3 0.00 0.04 0.00 100 1007.2
20260506001605 59 264 1.7 6.1 0.00 0.04 0.00 100 1007.3
20260506001105 59 223 0.0 8.7 0.00 0.04 0.00 99 1007.3
20260506000605 59 235 1.7 4.3 0.00 0.04 0.00 99 1007.2
20260506000106 59 235 1.7 2.6 0.01 0.04 0.00 99 1007.2
20260505235605 59 235 1.7 3.5 0.01 0.04 0.00 99 1007.2
20260505235106 59 235 0.0 4.3 0.01 0.04 0.00 99 1007.2
20260505234609 59 235 2.6 7.0 0.02 0.04 0.00 99 1007.4
20260505234109 59 233 0.9 6.1 0.02 0.04 0.00 99 1007.4
20260505233606 59 240 0.0 5.2 0.03 0.04 0.00 99 1007.5
20260505233108 59 234 2.6 4.3 0.03 0.04 0.00 98 1007.5
20260505232605 59 234 0.9 4.3 0.04 0.04 0.00 98 1007.6
20260505232105 59 243 0.9 8.7 0.04 0.04 0.00 98 1007.6
20260505231609 59 244 1.7 8.7 0.04 0.04 0.00 98 1007.8
20260505231106 59 245 3.5 7.0 0.04 0.04 0.00 98 1007.8
20260505230609 59 229 2.6 8.7 0.04 0.04 0.00 97 1007.7
20260505230106 59 220 4.3 8.7 0.04 0.04 0.00 97 1007.8
20260505225606 59 245 0.0 6.1 0.04 0.04 0.00 97 1007.7
20260505225106 59 226 3.5 10.4 0.04 0.04 0.00 96 1007.7
20260505224606 59 249 6.1 12.2 0.03 0.03 0.00 96 1007.8
20260505224106 59 305 4.3 11.3 0.03 0.03 0.00 94 1007.8
20260505223606 60 246 3.5 11.3 0.02 0.02 0.00 93 1007.8
20260505223106 60 265 3.5 8.7 0.02 0.02 0.00 91 1007.6
20260505222605 60 265 7.8 12.2 0.01 0.01 0.00 89 1007.6
20260505222106 61 260 10.4 11.3 0.00 0.00 0.00 86 1007.5
20260505221608 62 259 3.5 15.6 0.00 0.00 0.00 79 1007.4
20260505221106 65 232 8.7 18.2 0.00 0.00 0.00 73 1007.3
20260505220605 68 270 6.1 13.0 0.00 0.00 0.00 58 1007.0
20260505220106 68 205 4.3 12.2 0.00 0.00 0.00 57 1006.6
20260505215606 68 182 2.6 12.2 0.00 0.00 0.00 55 1006.4
20260505215105 69 175 5.2 9.6 0.00 0.00 0.00 55 1006.4
20260505214606 69 192 2.6 14.8 0.00 0.00 0.00 55 1006.4
20260505214105 69 163 4.3 8.7 0.00 0.00 0.00 56 1006.3
20260505213609 69 179 2.6 9.6 0.00 0.00 0.00 55 1006.4
20260505213106 69 196 1.7 19.1 0.00 0.00 0.00 55 1006.4
20260505212606 70 209 3.5 12.2 0.00 0.00 0.00 54 1006.2
20260505212109 70 161 2.6 12.2 0.00 0.00 0.00 53 1006.2
20260505211606 70 192 0.0 10.4 0.00 0.00 0.00 54 1006.3
20260505211106 69 215 2.6 13.0 0.00 0.00 0.00 55 1006.3
20260505210606 68 196 0.9 13.0 0.00 0.00 0.00 55 1006.4
20260505210106 68 184 8.7 13.0 0.00 0.00 0.00 56 1006.4
20260505205606 68 190 1.7 9.6 0.00 0.00 0.00 57 1006.4
20260505205105 68 247 2.6 10.4 0.00 0.00 0.00 57 1006.4